[[{"header":{"parameterUnit":"m.s-1","parameterCategory":1,"la1":30.2992,"la2":30.254,"lo1":-89.0895,"lo2":-89.0443,"dy":0.0025,"dx":0.0025,"nx":19,"ny":19,"refTime":"2026-03-09T03:00:00:Z","depth":0,"parameterNumber":2,"parameterNumberName":"U-component_of_WINDS"},"data":[0,0,0,-0.9317,-0.9315,-0.9197,-0.9197,-0.9067,-0.9066,0,0,0,0,0,0,0,0,0,0,0,-0.9365,-0.9365,-0.9317,-0.9314,-0.9198,-0.9197,-0.9067,-0.9066,0,0,0,0,0,0,0,0,0,0,0,-0.9365,-0.9365,-0.9364,-0.9314,-0.9198,-0.9197,-0.9067,-0.9148,0,0,0,0,0,0,0,0,0,0,-0.9258,-0.9316,-0.9365,-0.9364,-0.9313,-0.9198,-0.9197,-0.9152,-0.9143,-0.9129,0,-0.9121,0,-0.9092,-0.9059,-0.9058,0,0,0,-0.9304,-0.9324,-0.928,-0.9364,-0.9312,-0.9198,-0.9247,-0.9147,-0.9137,-0.9118,-0.9119,-0.9114,-0.909,-0.9058,-0.9057,-0.9016,-0.9016,0,0,-0.931,-0.9351,-0.9287,-0.9275,-0.9296,-0.9251,-0.9244,-0.914,-0.9144,-0.9119,-0.911,-0.9088,-0.9057,-0.9056,-0.9015,-0.9016,0,0,0,-0.9336,-0.9356,-0.9314,-0.9281,-0.9258,-0.9248,-0.9239,-0.9149,-0.9132,-0.9109,-0.9086,-0.9057,-0.9055,-0.9015,-0.9016,-0.9072,0,0,0,-0.9339,-0.9371,-0.9318,-0.9341,-0.9261,-0.9202,-0.9251,-0.9139,-0.9126,-0.9087,-0.9056,-0.9054,-0.9015,-0.9015,-0.907,-0.9092,0,0,0,-0.9368,-0.9374,-0.9362,-0.9344,-0.9295,-0.9203,-0.918,-0.9135,-0.9113,-0.9058,-0.9054,-0.9014,-0.9015,-0.9068,-0.9088,-0.9094,0,0,0,-0.941,-0.9412,-0.9364,-0.9357,-0.9296,-0.9239,-0.918,-0.9135,-0.9095,-0.9056,-0.9015,-0.9016,-0.9067,-0.9086,-0.9092,-0.9107,-0.9117,0,0,-0.9436,-0.9417,-0.941,-0.9363,-0.9326,-0.9254,-0.9223,-0.9147,-0.9103,-0.9047,-0.9045,-0.9071,-0.9088,-0.9093,-0.9156,-0.9165,0,0,0,-0.9432,-0.9428,-0.9409,-0.9374,-0.9316,-0.9269,-0.9193,-0.9165,-0.9115,-0.9083,-0.9072,-0.9081,-0.9083,-0.9088,-0.9095,-0.9094,-0.902,-0.9019,-0.9019,-0.9527,-0.9473,-0.9458,-0.939,-0.9356,-0.9278,-0.9246,-0.9194,-0.9147,-0.9145,-0.9129,-0.9174,-0.9181,-0.9186,-0.9186,-0.9131,-0.9131,-0.9132,-0.9132,-0.9561,-0.9546,-0.9486,-0.945,-0.9392,-0.936,-0.9285,-0.9253,-0.9215,-0.9181,-0.918,-0.915,-0.9197,-0.9194,-0.9135,-0.9135,-0.9134,-0.9134,-0.9134,-0.9618,-0.9602,-0.9568,-0.9512,-0.9475,-0.9404,-0.9371,-0.9318,-0.9268,-0.9267,-0.9244,-0.9243,-0.9236,-0.9259,-0.926,-0.926,-0.926,-0.926,-0.926,-0.9691,-0.9651,-0.9631,-0.9571,-0.9542,-0.9497,-0.9419,-0.9388,-0.934,-0.9304,-0.9303,-0.9258,-0.9212,-0.9202,-0.9262,-0.9262,-0.9262,-0.9261,-0.9261,-0.9747,-0.9726,-0.9695,-0.9666,-0.9591,-0.9558,-0.9491,-0.9433,-0.94,-0.9385,-0.9339,-0.9313,-0.929,-0.9284,-0.9275,-0.935,-0.935,-0.935,-0.935,-0.9797,-0.978,-0.9736,-0.9693,-0.9645,-0.9582,-0.9547,-0.9486,-0.9419,-0.9395,-0.9376,-0.936,-0.9356,-0.9334,-0.9327,-0.9319,-0.9403,-0.9403,-0.9403,-0.9829,-0.9805,-0.9786,-0.9723,-0.9661,-0.9608,-0.9573,-0.9525,-0.9445,-0.9404,-0.9375,-0.9372,-0.9346,-0.934,-0.93,-0.929,-0.9274,0,0]},{"header":{"parameterUnit":"m.s-1","parameterCategory":1,"la1":30.2992,"la2":30.254,"lo1":-89.0895,"lo2":-89.0443,"dy":0.0025,"dx":0.0025,"nx":19,"ny":19,"refTime":"2026-03-09T03:00:00:Z","depth":0,"parameterNumber":3,"parameterNumberName":"V-component_of_WINDS"},"data":[0,0,0,1.7978,1.7978,1.7993,1.7993,1.8017,1.8018,0,0,0,0,0,0,0,0,0,0,0,1.7976,1.7976,1.7978,1.7978,1.7993,1.7993,1.8017,1.8018,0,0,0,0,0,0,0,0,0,0,0,1.7976,1.7976,1.7977,1.7978,1.7993,1.7993,1.8017,1.8004,0,0,0,0,0,0,0,0,0,0,1.7988,1.799,1.7976,1.7977,1.7978,1.7993,1.7993,1.8003,1.8005,1.8013,0,1.8021,0,1.802,1.802,1.802,0,0,0,1.7976,1.7989,1.799,1.7977,1.7978,1.7993,1.7986,1.8004,1.8006,1.8015,1.8021,1.8022,1.802,1.802,1.802,1.8074,1.8075,0,0,1.7975,1.798,1.7989,1.7992,1.799,1.7985,1.7986,1.8005,1.8012,1.8021,1.8022,1.802,1.802,1.802,1.8074,1.8075,0,0,0,1.7974,1.798,1.7981,1.7991,1.7993,1.7986,1.7987,1.8011,1.8011,1.8022,1.8021,1.802,1.802,1.8074,1.8074,1.8099,0,0,0,1.7973,1.7979,1.798,1.7984,1.7993,1.8002,1.7993,1.801,1.8012,1.8021,1.802,1.8021,1.8073,1.8074,1.8098,1.811,0,0,0,1.7974,1.7979,1.7983,1.7984,1.7991,1.8002,1.8003,1.801,1.8011,1.802,1.8021,1.8073,1.8074,1.8096,1.8108,1.8127,0,0,0,1.7976,1.8003,1.7983,1.8013,1.7991,1.8017,1.8003,1.8021,1.8032,1.802,1.8073,1.8074,1.8096,1.8106,1.8126,1.8145,1.8153,0,0,1.8014,1.8008,1.8025,1.8008,1.8039,1.8014,1.8049,1.8053,1.8048,1.8066,1.8067,1.8098,1.8107,1.8127,1.8197,1.8204,0,0,0,1.8039,1.8052,1.8059,1.807,1.8074,1.8079,1.8077,1.8078,1.8093,1.8059,1.811,1.8115,1.8126,1.8135,1.8141,1.8151,1.8078,1.8078,1.8078,1.81,1.8093,1.8122,1.8118,1.8128,1.8127,1.8135,1.8137,1.8126,1.8138,1.8144,1.8187,1.8198,1.8202,1.8213,1.8153,1.8153,1.8153,1.8153,1.8155,1.8172,1.8159,1.8181,1.8175,1.8193,1.8193,1.8185,1.8202,1.8182,1.8192,1.8172,1.821,1.8219,1.8155,1.8154,1.8154,1.8154,1.8154,1.8195,1.8202,1.8204,1.822,1.8234,1.8228,1.8245,1.8238,1.8231,1.824,1.8246,1.8245,1.8245,1.8243,1.8243,1.8243,1.8243,1.8244,1.8244,1.8235,1.8237,1.8253,1.8261,1.8268,1.8276,1.8276,1.8282,1.8287,1.828,1.828,1.8269,1.8215,1.8202,1.8246,1.8246,1.8245,1.8245,1.8245,1.8295,1.8281,1.8305,1.8312,1.8322,1.8336,1.8327,1.8341,1.8345,1.8354,1.8341,1.8302,1.8295,1.829,1.828,1.8341,1.8341,1.8341,1.8341,1.8329,1.8325,1.835,1.8362,1.8373,1.8367,1.8396,1.8396,1.8394,1.8396,1.8386,1.8371,1.8367,1.8363,1.8357,1.8347,1.8424,1.8424,1.8424,1.8366,1.8363,1.8389,1.8388,1.8395,1.8402,1.8429,1.8443,1.8437,1.8427,1.8398,1.8395,1.837,1.8362,1.8352,1.8342,1.8324,0,0]}]]